Location: Waldport
(44.4270°N, 124.0680°W)
Time: 04:38:00
(UTC-07:00)

Meteor 1-26 Rocket - Visible Passes

Search period start: 26 May 2015 00:00
Search period end: 05 June 2015 00:00
Orbit: 824 x 911 km, 81.3° (Epoch: 26 May)

Date Brightness Start Highest point End Pass type
(mag) Time Alt. Az. Time Alt. Az. Time Alt. Az.
26 May 4.8 03:48:09 10° N 03:53:35 57° ENE 03:59:03 10° SSE visible
27 May 4.7 03:41:18 10° N 03:46:43 58° ENE 03:52:12 10° SSE visible
28 May 4.7 03:34:24 10° N 03:39:51 60° ENE 03:45:21 10° SSE visible
29 May 4.7 03:27:31 10° N 03:32:59 61° ENE 03:38:30 10° SSE visible
30 May 4.6 03:20:39 10° N 03:26:06 62° ENE 03:31:39 10° SSE visible
31 May 4.6 03:13:46 10° N 03:19:14 63° ENE 03:24:40 11° SSE visible
01 Jun 4.5 03:06:53 10° N 03:12:22 64° ENE 03:17:18 13° SSE visible
01 Jun 5.7 04:51:32 10° NW 04:55:12 18° W 04:58:40 10° SW visible
02 Jun 4.5 02:59:59 10° N 03:05:30 65° ENE 03:10:00 16° SSE visible
02 Jun 5.8 04:44:42 10° NW 04:48:19 17° W 04:51:45 10° SW visible
03 Jun 4.5 02:53:07 10° N 02:58:38 66° ENE 03:02:45 19° SSE visible
03 Jun 5.8 04:37:51 10° NW 04:41:26 17° W 04:44:49 10° WSW visible
04 Jun 4.4 02:46:14 10° N 02:51:46 68° ENE 02:55:32 21° SSE visible
04 Jun 5.8 04:31:01 10° NW 04:34:34 17° W 04:37:53 10° WSW visible
